W7YP Weather Reports


time (UTC)temp
C
wind
direction
speed
KPH
gust
KPH
rain 1hr
cm
rain 24hr
cm
rain mn
cm
humidity
%
barometer
mb
20260510081917 6 272 0.0 0.0 0.00 0.00 0.00 87 1020.2
20260510081417 6 272 0.0 0.0 0.00 0.00 0.00 87 1020.3
20260510080902 6 272 0.0 0.0 0.00 0.00 0.00 87 1020.2
20260510080402 6 272 0.0 0.0 0.00 0.00 0.00 87 1020.2
20260510075905 6 272 0.0 0.0 0.00 0.00 0.00 86 1020.2
20260510075620 7 272 0.0 0.0 0.00 0.00 0.00 86 1020.3
20260510074848 7 272 0.0 0.0 0.00 0.00 0.00 86 1020.2
20260510074337 7 272 0.0 0.0 0.00 0.00 0.00 86 1020.2
20260510074053 7 272 0.0 0.0 0.00 0.00 0.00 86 1020.2
20260510073559 7 272 0.0 0.0 0.00 0.00 0.00 86 1020.3
20260510072835 7 272 0.0 0.0 0.00 0.00 0.00 86 1020.2
20260510072328 7 272 0.0 0.0 0.00 0.00 0.00 86 1020.2
20260510071823 7 272 0.0 0.0 0.00 0.00 0.00 86 1020.2
20260510071326 7 272 0.0 0.0 0.00 0.00 0.00 86 1020.2
20260510070819 7 272 0.0 0.0 0.00 0.00 0.00 85 1020.2
20260510070314 7 272 0.0 0.0 0.00 0.00 0.00 85 1020.2
20260510065814 7 272 0.0 0.0 0.00 0.00 0.00 84 1020.1
20260510065314 7 272 0.0 0.0 0.00 0.00 0.00 84 1020.1
20260510064811 7 272 0.0 0.0 0.00 0.00 0.00 84 1020.2
20260510064304 7 272 0.0 0.0 0.00 0.00 0.00 84 1020.2
20260510064011 7 272 0.0 0.0 0.00 0.00 0.00 84 1020.1
20260510063249 7 272 0.0 0.0 0.00 0.00 0.00 84 1020.1
20260510062752 7 272 0.0 0.0 0.00 0.00 0.00 84 1020.1
20260510062247 7 272 0.0 0.0 0.00 0.00 0.00 84 1020.1
20260510061737 7 272 0.0 3.2 0.00 0.00 0.00 84 1020.2
20260510061235 7 272 0.0 3.2 0.00 0.00 0.00 83 1020.2
20260510060955 7 272 0.0 0.0 0.00 0.00 0.00 84 1020.2
20260510060232 7 272 0.0 0.0 0.00 0.00 0.00 84 1020.1
20260510055717 7 272 0.0 0.0 0.00 0.00 0.00 83 1020.1
20260510055215 8 272 0.0 0.0 0.00 0.00 0.00 83 1020.1
20260510054711 8 272 0.0 0.0 0.00 0.00 0.00 82 1019.9
20260510054205 8 272 0.0 0.0 0.00 0.00 0.00 82 1019.9
20260510053703 8 272 0.0 0.0 0.00 0.00 0.00 82 1019.9
20260510053146 8 272 0.0 0.0 0.00 0.00 0.00 82 1019.8
20260510052646 8 272 0.0 0.0 0.00 0.00 0.00 81 1019.8
20260510052402 8 272 0.0 0.0 0.00 0.00 0.00 81 1019.8
20260510051641 8 272 0.0 1.6 0.00 0.00 0.00 81 1019.8
20260510051405 8 272 0.0 1.6 0.00 0.00 0.00 80 1019.7
20260510050637 8 272 0.0 0.0 0.00 0.00 0.00 81 1019.8
20260510050137 8 272 0.0 1.6 0.00 0.00 0.00 80 1019.7
20260510045626 8 272 0.0 1.6 0.00 0.00 0.00 80 1019.8
20260510045127 9 272 0.0 0.0 0.00 0.00 0.00 80 1019.8
20260510044627 9 272 0.0 3.2 0.00 0.00 0.00 81 1019.8
20260510044130 9 272 0.0 3.2 0.00 0.00 0.00 79 1019.7
20260510043623 9 272 0.0 0.0 0.00 0.00 0.00 79 1019.8
20260510043608 9 272 0.0 0.0 0.00 0.00 0.00 79 1019.8
20260510042613 10 272 0.0 0.0 0.00 0.00 0.00 78 1019.7
20260510042113 10 272 0.0 0.0 0.00 0.00 0.00 78 1019.7
20260510041615 10 272 0.0 0.0 0.00 0.00 0.00 76 1019.7
20260510041337 10 272 0.0 0.0 0.00 0.00 0.00 76 1019.7
20260510040613 10 272 0.0 0.0 0.00 0.00 0.00 76 1019.7
20260510040108 10 272 0.0 0.0 0.00 0.00 0.00 75 1019.6
20260510035608 11 272 0.0 0.0 0.00 0.00 0.00 75 1019.5
20260510035109 11 272 0.0 0.0 0.00 0.00 0.00 75 1019.5
20260510034609 11 272 0.0 0.0 0.00 0.00 0.00 75 1019.4
20260510034109 11 272 0.0 0.0 0.00 0.00 0.00 73 1019.3
20260510033605 11 272 0.0 0.0 0.00 0.00 0.00 73 1019.2
20260510033100 11 272 0.0 0.0 0.00 0.00 0.00 72 1019.2
20260510032600 12 272 0.0 0.0 0.00 0.00 0.00 71 1019.2
20260510032314 12 272 0.0 0.0 0.00 0.00 0.00 71 1019.1
20260510031550 12 272 0.0 0.0 0.00 0.00 0.00 70 1019.1
20260510031050 12 272 0.0 0.0 0.00 0.00 0.00 70 1018.9
20260510030548 13 272 0.0 0.0 0.00 0.00 0.00 69 1018.9
20260510030045 13 272 0.0 0.0 0.00 0.00 0.00 68 1018.9
20260510025545 13 272 0.0 0.0 0.00 0.00 0.00 67 1018.8
20260510025045 14 272 0.0 1.6 0.00 0.00 0.00 66 1018.8
20260510024540 14 272 0.0 1.6 0.00 0.00 0.00 64 1018.8
20260510024041 15 271 0.0 1.6 0.00 0.00 0.00 63 1018.7
20260510023539 15 271 0.0 1.6 0.00 0.00 0.00 62 1018.7
20260510023036 16 271 0.0 1.6 0.00 0.00 0.00 61 1018.8
20260510022536 16 271 0.0 1.6 0.00 0.00 0.00 60 1018.8
20260510022037 16 271 0.0 1.6 0.00 0.00 0.00 58 1018.8
20260510021526 16 271 0.0 0.0 0.00 0.00 0.00 57 1018.8
20260510021026 17 271 0.0 0.0 0.00 0.00 0.00 56 1018.7
20260510020525 17 271 0.0 1.6 0.00 0.00 0.00 55 1018.8
20260510020236 17 271 0.0 1.6 0.00 0.00 0.00 55 1018.7
20260510015512 17 281 0.0 3.2 0.00 0.00 0.00 50 1018.7
20260510015011 17 281 0.0 3.2 0.00 0.00 0.00 47 1018.7
20260510014512 18 223 0.0 8.0 0.00 0.00 0.00 51 1018.6
20260510014007 18 223 0.0 8.0 0.00 0.00 0.00 43 1018.6
20260510013507 18 302 0.0 4.8 0.00 0.00 0.00 47 1018.7
20260510013010 18 273 0.0 4.8 0.00 0.00 0.00 48 1018.7
20260510012727 18 260 0.0 3.2 0.00 0.00 0.00 46 1018.7
20260510012002 18 267 0.0 3.2 0.00 0.00 0.00 44 1018.7
20260510011503 18 294 0.0 1.6 0.00 0.05 0.00 45 1018.7
20260510011231 18 279 0.0 11.3 0.00 0.08 0.00 42 1018.7
20260510010504 18 327 3.2 11.3 0.00 0.08 0.00 42 1018.7
20260510010220 18 183 0.0 9.7 0.00 0.08 0.00 43 1018.6
20260510005454 19 298 0.0 9.7 0.00 0.08 0.00 42 1018.6
20260510004948 19 41 0.0 11.3 0.00 0.08 0.00 43 1018.6
20260510004450 19 130 1.6 11.3 0.00 0.08 0.00 42 1018.6
20260510003949 19 295 0.0 3.2 0.00 0.08 0.00 41 1018.5
20260510003705 19 94 0.0 3.2 0.00 0.08 0.00 40 1018.5
20260510002944 19 291 0.0 8.0 0.00 0.08 0.00 40 1018.5
20260510002444 19 232 0.0 8.0 0.00 0.08 0.00 39 1018.5
20260510001939 19 337 0.0 8.0 0.00 0.08 0.00 40 1018.5
20260510001435 20 304 0.0 8.0 0.00 0.08 0.00 42 1018.5
20260510001208 20 296 1.6 14.5 0.00 0.08 0.00 39 1018.5
20260510000435 20 337 3.2 14.5 0.00 0.08 0.00 41 1018.5
20260509235938 20 323 0.0 12.9 0.00 0.08 0.00 39 1018.4
20260509235421 20 284 0.0 12.9 0.00 0.08 0.00 39 1018.5
20260509234920 20 209 3.2 9.7 0.00 0.08 0.00 38 1018.4
20260509234636 20 185 0.0 4.8 0.00 0.08 0.00 41 1018.4
20260509233906 20 53 0.0 6.4 0.00 0.08 0.00 42 1018.5
20260509233401 20 265 0.0 6.4 0.00 0.08 0.00 41 1018.4
20260509232901 20 230 0.0 8.0 0.00 0.08 0.00 40 1018.5
20260509232357 20 318 1.6 12.9 0.00 0.08 0.00 41 1018.5
20260509231856 20 311 3.2 12.9 0.00 0.08 0.00 40 1018.6
20260509231619 20 24 1.6 11.3 0.00 0.08 0.00 40 1018.5
20260509230857 20 0 0.0 6.4 0.00 0.08 0.00 41 1018.6
20260509230354 19 25 1.6 6.4 0.00 0.08 0.00 42 1018.7
20260509225841 19 188 1.6 6.4 0.00 0.08 0.00 41 1018.7
20260509225338 19 0 1.6 12.9 0.00 0.08 0.00 41 1018.8
20260509224832 19 110 6.4 12.9 0.00 0.08 0.00 40 1018.8
20260509224321 19 261 0.0 8.0 0.00 0.08 0.00 42 1018.9
20260509223817 19 240 0.0 9.7 0.00 0.08 0.00 43 1019.1
20260509223317 19 155 1.6 12.9 0.00 0.08 0.00 41 1019.1
20260509222817 18 178 3.2 12.9 0.00 0.08 0.00 41 1019.2
20260509222318 18 131 0.0 6.4 0.00 0.08 0.00 44 1018.9
20260509221817 18 352 0.0 6.4 0.00 0.08 0.00 42 1019.1
20260509221312 18 348 1.6 6.4 0.00 0.08 0.00 43 1019.1
20260509220813 18 62 1.6 12.9 0.00 0.08 0.00 42 1019.1
20260509220542 19 336 1.6 12.9 0.00 0.08 0.00 42 1019.1
20260509215814 19 176 0.0 8.0 0.00 0.08 0.00 42 1019.2
20260509215317 19 321 1.6 8.0 0.00 0.08 0.00 41 1019.1
20260509214804 19 253 1.6 14.5 0.00 0.08 0.00 42 1019.1
20260509214304 19 272 1.6 14.5 0.00 0.08 0.00 43 1019.1
20260509213759 18 317 0.0 12.9 0.00 0.08 0.00 45 1019.2
20260509213259 18 171 0.0 12.9 0.00 0.08 0.00 42 1019.2
20260509213012 18 280 0.0 12.9 0.00 0.08 0.00 43 1019.3
20260509212257 19 128 1.6 8.0 0.00 0.08 0.00 41 1019.3
20260509211742 19 149 1.6 11.3 0.00 0.08 0.00 41 1019.3
20260509211232 19 201 0.0 12.9 0.00 0.08 0.00 41 1019.3
20260509210956 19 180 6.4 16.1 0.00 0.08 0.00 42 1019.4
20260509210707 19 154 3.2 16.1 0.00 0.08 0.00 41 1019.4
20260509205725 19 196 3.2 11.3 0.00 0.08 0.00 41 1019.4
20260509205214 19 202 0.0 11.3 0.00 0.08 0.00 44 1019.3
20260509204714 19 47 3.2 12.9 0.00 0.08 0.00 41 1019.3
20260509204216 19 348 3.2 12.9 0.00 0.08 0.00 44 1019.2
20260509203710 19 318 3.2 12.9 0.00 0.08 0.00 42 1019.3
20260509203210 19 317 1.6 12.9 0.00 0.08 0.00 45 1019.4
20260509202706 18 84 0.0 9.7 0.00 0.08 0.00 47 1019.3
20260509202206 18 103 0.0 9.7 0.00 0.08 0.00 45 1019.3
20260509201706 18 192 0.0 17.7 0.00 0.08 0.00 45 1019.4
20260509201206 18 130 0.0 17.7 0.00 0.08 0.00 43 1019.4
20260509200706 18 348 3.2 16.1 0.00 0.08 0.00 43 1019.4
20260509200207 18 217 4.8 14.5 0.00 0.08 0.00 43 1019.3
20260509195706 19 314 1.6 12.9 0.00 0.08 0.00 44 1019.4
20260509195202 19 211 1.6 12.9 0.00 0.08 0.00 46 1019.4
20260509194656 19 318 3.2 8.0 0.00 0.08 0.00 44 1019.4
20260509194200 18 175 1.6 8.0 0.00 0.08 0.00 45 1019.4
20260509193657 18 0 1.6 16.1 0.00 0.08 0.00 45 1019.4
20260509193158 18 51 0.0 16.1 0.00 0.08 0.00 49 1019.4
20260509192657 18 184 1.6 11.3 0.00 0.08 0.00 44 1019.4
20260509192153 18 321 1.6 6.4 0.00 0.08 0.00 44 1019.4
20260509191653 18 303 1.6 12.9 0.00 0.08 0.00 46 1019.4
20260509191153 18 0 1.6 14.5 0.00 0.08 0.00 49 1019.6
20260509190656 18 155 3.2 14.5 0.00 0.08 0.00 44 1019.5
20260509190154 18 311 3.2 11.3 0.00 0.08 0.00 47 1019.5
20260509185653 17 80 3.2 14.5 0.00 0.08 0.00 46 1019.5
20260509185153 17 323 3.2 14.5 0.00 0.08 0.00 47 1019.7
20260509184913 17 195 1.6 8.0 0.00 0.08 0.00 47 1019.6
20260509184138 17 96 3.2 16.1 0.00 0.08 0.00 49 1019.6
20260509183633 17 76 4.8 16.1 0.00 0.08 0.00 46 1019.5
20260509183134 17 182 6.4 14.5 0.00 0.08 0.00 47 1019.6
20260509182634 17 355 0.0 9.7 0.00 0.08 0.00 48 1019.5
20260509182134 17 288 1.6 9.7 0.00 0.08 0.00 49 1019.5
20260509181634 16 286 0.0 9.7 0.00 0.08 0.00 52 1019.6
20260509181350 16 335 1.6 11.3 0.00 0.08 0.00 51 1019.6
20260509180625 16 327 0.0 11.3 0.00 0.08 0.00 54 1019.7
20260509180125 16 196 6.4 14.5 0.00 0.08 0.00 51 1019.5
20260509175627 16 188 3.2 16.1 0.00 0.08 0.00 51 1019.6
20260509175124 16 203 3.2 16.1 0.00 0.08 0.00 54 1019.7
20260509174625 16 113 4.8 14.5 0.00 0.08 0.00 52 1019.6
20260509174124 16 167 3.2 16.1 0.00 0.08 0.00 53 1019.5
20260509173625 16 317 3.2 16.1 0.00 0.08 0.00 53 1019.6
20260509173125 16 119 3.2 12.9 0.00 0.08 0.00 56 1019.5
20260509172625 15 302 1.6 9.7 0.00 0.08 0.00 53 1019.7
20260509172121 15 80 1.6 9.7 0.00 0.08 0.00 55 1019.8
20260509171615 15 187 1.6 11.3 0.00 0.08 0.00 55 1019.7
20260509171116 15 242 1.6 12.9 0.00 0.08 0.00 56 1019.7
20260509170616 15 125 0.0 12.9 0.00 0.08 0.00 56 1019.7
20260509170116 14 34 0.0 8.0 0.00 0.08 0.00 62 1019.7
20260509165616 14 341 0.0 6.4 0.00 0.08 0.00 64 1019.6
20260509165111 13 125 0.0 4.8 0.00 0.08 0.00 63 1019.7
20260509165054 13 316 0.0 4.8 0.00 0.08 0.00 74 1019.7
20260509164327 13 67 0.0 4.8 0.00 0.08 0.00 79 1019.7
20260509163607 13 67 1.6 4.8 0.00 0.08 0.00 80 1019.8
20260509163107 13 138 0.0 4.8 0.00 0.08 0.00 85 1019.8
20260509162608 12 94 0.0 8.0 0.00 0.08 0.00 83 1019.7
20260509162102 12 267 0.0 11.3 0.00 0.08 0.00 87 1019.7
20260509161821 12 130 1.6 11.3 0.00 0.08 0.00 88 1019.8
20260509161103 11 103 1.6 4.8 0.00 0.08 0.00 91 1019.8
20260509160831 11 151 0.0 4.8 0.00 0.08 0.00 94 1019.8
20260509160059 11 151 0.0 6.4 0.00 0.08 0.00 96 1019.8
20260509155558 10 151 1.6 6.4 0.00 0.08 0.00 96 1019.8
20260509155054 10 209 1.6 4.8 0.00 0.08 0.00 97 1019.8
20260509154549 10 212 0.0 3.2 0.00 0.08 0.00 97 1019.8
20260509154049 10 212 0.0 3.2 0.00 0.08 0.00 97 1019.8
20260509153550 9 211 0.0 0.0 0.00 0.08 0.00 97 1019.8
20260509153543 9 211 0.0 0.0 0.00 0.08 0.00 98 1019.8
20260509152809 8 211 0.0 0.0 0.00 0.08 0.00 98 1019.8
20260509152052 8 211 0.0 0.0 0.00 0.08 0.00 98 1019.7
20260509151540 8 211 0.0 0.0 0.00 0.08 0.00 98 1019.7
20260509151032 8 211 0.0 0.0 0.00 0.08 0.00 98 1019.7
20260509150524 8 211 0.0 0.0 0.00 0.08 0.00 98 1019.7
20260509150025 8 211 0.0 0.0 0.00 0.08 0.00 98 1019.6
20260509145521 8 211 0.0 1.6 0.00 0.08 0.00 97 1019.6
20260509145015 8 211 0.0 1.6 0.00 0.08 0.00 98 1019.5
20260509144731 8 212 0.0 0.0 0.00 0.08 0.00 98 1019.5
20260509144000 7 212 0.0 1.6 0.00 0.08 0.00 98 1019.5
20260509143450 7 212 0.0 1.6 0.00 0.08 0.00 98 1019.4
20260509142953 7 212 0.0 0.0 0.00 0.08 0.00 98 1019.4
20260509142448 7 212 0.0 0.0 0.00 0.08 0.00 97 1019.3
20260509141925 7 212 0.0 0.0 0.00 0.08 0.00 97 1019.3
20260509141638 7 212 0.0 0.0 0.00 0.08 0.00 97 1019.3
20260509140916 7 212 0.0 0.0 0.00 0.08 0.00 97 1019.3
20260509140859 7 212 0.0 0.0 0.00 0.08 0.00 97 1019.2
20260509140131 6 212 0.0 0.0 0.00 0.08 0.00 97 1019.2
20260509135406 6 212 0.0 0.0 0.00 0.08 0.00 97 1019.1
20260509134901 6 212 0.0 0.0 0.00 0.08 0.00 97 1018.9
20260509134402 6 212 0.0 0.0 0.00 0.08 0.00 97 1018.9
20260509133904 6 212 0.0 0.0 0.00 0.08 0.00 97 1018.8
20260509133354 6 212 0.0 0.0 0.00 0.08 0.00 97 1018.8
20260509132847 6 212 0.0 0.0 0.00 0.08 0.00 96 1018.8
20260509132342 6 212 0.0 0.0 0.00 0.08 0.00 96 1018.7
20260509131842 5 212 0.0 0.0 0.00 0.08 0.00 96 1018.7
20260509131342 5 212 0.0 0.0 0.00 0.08 0.00 96 1018.6
20260509130842 5 212 0.0 0.0 0.00 0.08 0.00 96 1018.6
20260509130057 5 212 0.0 0.0 0.00 0.08 0.00 96 1018.4
20260509125333 5 212 0.0 0.0 0.00 0.08 0.00 96 1018.4
20260509124830 5 212 0.0 0.0 0.00 0.08 0.00 96 1018.4
20260509124550 5 212 0.0 0.0 0.00 0.08 0.00 95 1018.4
20260509123828 6 212 0.0 0.0 0.00 0.08 0.00 95 1018.3
20260509123324 6 212 0.0 0.0 0.00 0.08 0.00 95 1018.3
20260509122823 6 212 0.0 0.0 0.00 0.08 0.00 96 1018.2
20260509122318 6 212 0.0 0.0 0.00 0.08 0.00 96 1018.3
20260509121814 6 212 0.0 0.0 0.00 0.08 0.00 96 1018.3
20260509121317 6 212 0.0 0.0 0.00 0.08 0.00 96 1018.3
20260509120809 6 212 0.0 0.0 0.00 0.08 0.00 96 1018.2
20260509120300 6 212 0.0 0.0 0.00 0.08 0.00 96 1018.2
20260509115800 6 212 0.0 0.0 0.00 0.08 0.00 96 1018.1
20260509115258 6 212 0.0 0.0 0.00 0.08 0.00 96 1017.9
20260509114754 6 212 0.0 0.0 0.00 0.08 0.00 96 1017.9
20260509114240 6 212 0.0 0.0 0.00 0.08 0.00 96 1018.1
20260509113730 6 212 0.0 0.0 0.00 0.08 0.00 96 1017.9
20260509113450 6 212 0.0 0.0 0.00 0.08 0.00 96 1017.8
20260509112731 6 212 0.0 0.0 0.00 0.08 0.00 96 1017.8
20260509112446 6 212 0.0 0.0 0.00 0.08 0.00 96 1017.8
20260509111943 6 212 0.0 0.0 0.00 0.08 0.00 96 1017.7
20260509111220 6 212 0.0 0.0 0.00 0.08 0.00 96 1017.7
20260509110716 6 212 0.0 0.0 0.00 0.08 0.00 96 1017.6
20260509110213 6 212 0.0 0.0 0.00 0.08 0.00 96 1017.6
20260509105711 6 212 0.0 0.0 0.00 0.08 0.00 96 1017.6
20260509105435 6 212 0.0 0.0 0.00 0.08 0.00 96 1017.5
20260509104710 6 212 0.0 0.0 0.00 0.08 0.00 96 1017.5
20260509104213 6 212 0.0 0.0 0.00 0.08 0.00 95 1017.5
20260509103928 6 212 0.0 0.0 0.00 0.08 0.00 95 1017.4
20260509103202 6 212 0.0 0.0 0.00 0.08 0.00 95 1017.5
20260509102914 7 212 0.0 0.0 0.00 0.08 0.00 95 1017.4
20260509102357 7 212 0.0 0.0 0.00 0.08 0.00 95 1017.4
20260509101637 7 212 0.0 0.0 0.00 0.08 0.00 95 1017.3
20260509101136 7 212 0.0 0.0 0.00 0.08 0.00 95 1017.3
20260509100632 7 212 0.0 0.0 0.00 0.08 0.00 95 1017.2
20260509100132 7 212 0.0 0.0 0.00 0.08 0.00 95 1017.3
20260509095635 7 212 0.0 0.0 0.00 0.08 0.00 95 1017.2
20260509095123 7 212 0.0 0.0 0.00 0.08 0.00 95 1017.2
20260509094623 7 212 0.0 0.0 0.00 0.08 0.00 95 1017.0
20260509094344 7 212 0.0 0.0 0.00 0.08 0.00 95 1017.0
20260509094222 7 212 0.0 0.0 0.00 0.08 0.00 95 1017.0
20260509093121 7 212 0.0 0.0 0.00 0.08 0.00 95 1017.0
20260509092619 7 212 0.0 0.0 0.00 0.08 0.00 95 1016.9
20260509092118 7 212 0.0 0.0 0.00 0.08 0.00 95 1016.9
20260509091604 7 212 0.0 0.0 0.00 0.08 0.00 95 1016.9
20260509091550 7 212 0.0 0.0 0.00 0.08 0.00 95 1016.9
20260509090603 7 212 0.0 0.0 0.00 0.08 0.00 95 1016.9
20260509090322 7 212 0.0 0.0 0.00 0.08 0.00 95 1016.8
20260509085604 7 212 0.0 0.0 0.00 0.08 0.00 95 1016.7
20260509085324 7 212 0.0 0.0 0.00 0.08 0.00 95 1016.8
20260509085048 7 212 0.0 0.0 0.00 0.08 0.00 95 1016.7
20260509084055 7 212 0.0 0.0 0.00 0.08 0.00 95 1016.7
20260509083801 7 212 0.0 0.0 0.00 0.08 0.00 95 1016.7
20260509083034 8 212 0.0 0.0 0.00 0.08 0.00 95 1016.7
20260509082530 8 212 0.0 0.0 0.00 0.08 0.00 95 1016.8
20260509082027 8 212 0.0 0.0 0.00 0.08 0.00 95 1016.8